Flag for Russia Weather past 2 weeks in Krasnodar, Russia

Now
70 °F

Clear.


Feels Like: 70 °F
Forecast: 70 / 96 °F
Wind: 1 mph from West

Location: Krasnodar Airport

Current Time: Jul 8, 2015 at 4:09:23 AM

Latest Report: Jul 8, 2015 at 3:30 AM


Visibility: 6 mi

Pressure: 29.89 "Hg

Humidity: 94%

Dew point: 68 °F

Location of KrasnodarLocation

Historic Weather in Krasnodar — Graph

°F

Krasnodar temperature yesterday

Maximum temperature yesterday: 88 °F (at 4:30 PM)
Minimum temperature yesterday: 64 °F (at 4:00 AM)
Average temperature yesterday: 77 °F

Past Weeks' High & Low Weather Summary

 TemperatureHumidityPressure
High88 °F (Jul 5, 2:30 PM)100% (Jun 23, 6:00 AM)30.12 "Hg (Jun 23, 6:00 AM)
Low61 °F (Jun 30, 4:00 AM)43% (Jul 7, 5:00 PM)29.62 "Hg (Jun 26, 4:30 AM)
Average74 °F76%29.89 "Hg
* Reported Jun 23 3:00 AM — Jul 8 3:00 AM, Krasnodar, Weather by CustomWeather, © 2015

Note: Actual official high and low records may vary slightly from our data, if they occured in-between our weather recording intervals... More about our weather records

Advertising

Krasnodar weather history for previous 24 hours

 ConditionsComfort  
Time TempWeatherWind HumidityBarometerVisibility
3:00 AM
Wed, Jul 8
70 °FPassing clouds.3 mph94%29.92 "HgN/A
2:30 AM72 °FClear.1 mph88%29.92 "Hg10 mi
2:00 AM72 °FClear.1 mph88%29.89 "Hg10 mi
1:30 AM72 °FClear.3 mph88%29.92 "Hg10 mi
12:30 AM73 °FClear.8 mph83%29.92 "Hg10 mi
12:00 AM73 °FClear.8 mph83%29.92 "Hg10 mi
11:30 PM
Tue, Jul 7
73 °FClear.6 mph83%29.92 "Hg10 mi
11:00 PM75 °FClear.8 mph78%29.92 "Hg10 mi
10:30 PM75 °FClear.6 mph78%29.92 "Hg10 mi
10:00 PM75 °FClear.3 mph74%29.92 "Hg10 mi
9:30 PM75 °FClear.1 mph78%29.92 "Hg10 mi
9:00 PM77 °FSunny.3 mph74%29.89 "Hg10 mi
8:30 PM79 °FSunny.3 mph65%29.89 "Hg10 mi
8:00 PM81 °FSunny.3 mph62%29.89 "Hg10 mi
7:30 PM84 °FSunny.3 mph55%29.89 "Hg10 mi
7:00 PM86 °FSunny.3 mph49%29.89 "Hg10 mi
6:30 PM86 °FPassing clouds.3 mph49%29.89 "HgN/A
6:00 PM86 °FPassing clouds.3 mph46%29.89 "HgN/A
5:30 PM86 °FPassing clouds.3 mph49%29.89 "HgN/A
5:00 PM88 °FScattered clouds.3 mph43%29.89 "HgN/A
4:30 PM88 °FScattered clouds.1 mph46%29.89 "HgN/A
4:00 PM86 °FScattered clouds.3 mph49%29.89 "HgN/A
3:30 PM86 °FScattered clouds.3 mph46%29.89 "HgN/A
3:00 PM86 °FScattered clouds.3 mph49%29.92 "HgN/A
2:30 PM86 °FScattered clouds.3 mph49%29.92 "HgN/A
2:00 PM84 °FScattered clouds.8 mph51%29.92 "HgN/A
1:30 PM84 °FScattered clouds.6 mph55%29.92 "HgN/A
1:00 PM84 °FScattered clouds.3 mph58%29.92 "HgN/A
12:30 PM82 °FScattered clouds.3 mph62%29.92 "HgN/A
12:00 PM82 °FScattered clouds.3 mph66%29.92 "HgN/A
11:30 AM81 °FPassing clouds.6 mph66%29.92 "HgN/A
11:00 AM81 °FPassing clouds.6 mph66%29.92 "HgN/A
10:30 AM79 °FPassing clouds.6 mph65%29.92 "HgN/A
10:00 AM79 °FPassing clouds.6 mph65%29.95 "HgN/A
9:30 AM79 °FPassing clouds.3 mph65%29.95 "HgN/A
9:00 AM77 °FPassing clouds.1 mph74%29.95 "HgN/A
8:30 AM75 °FPassing clouds.3 mph78%29.95 "HgN/A
8:00 AM75 °FPassing clouds.1 mph78%29.95 "HgN/A
7:30 AM73 °FPassing clouds.1 mph83%29.95 "HgN/A
7:00 AM72 °FPassing clouds.3 mph88%29.95 "HgN/A
6:30 AM70 °FSunny.1 mph88%29.95 "Hg10 mi
6:00 AM66 °FPassing clouds.1 mph100%29.95 "Hg4 mi
5:30 AM66 °FClear.3 mph94%29.95 "Hg5 mi
5:00 AM64 °FClear.1 mph94%29.95 "Hg5 mi
4:30 AM64 °FClear.1 mph100%29.92 "Hg6 mi
4:00 AM64 °FClear.1 mph100%29.92 "Hg10 mi
Weather by CustomWeather, © 2015

See weather overviewHow to use our weather pages